User: anonymous   Login
Location: Newark
(52.3500°N, 175.9667°E)
Time: 01:02:04
(UTC+00:00)
Language:

Courier 1B - Orbit

View from above orbital plane
View from above orbital plane
View from above satellite
View from above satellite

Ground track
Ground track

The orbit data is extracted from the following two-line orbital elements,

1 00058U 60013A   21108.32904868  .00000099  00000-0  25350-4 0  9992
2 00058  28.3287 347.9143 0164944  73.3905 288.4683 13.46326042979736
Epoch (UTC): 18 April 2021 07:53:49
Eccentricity: 0.0164944
inclination: 28.3287°
perigee height: 962 km
apogee height: 1209 km
right ascension of ascending node: 347.9143°
argument of perigee: 73.3905°
revolutions per day: 13.46326042
mean anomaly at epoch: 288.4683°
orbit number at epoch: 97973

The dashed part of the orbit path shows where the satellite is in the earth's shadow,  

DLR